Regional Weather Roundup
Issued by NWS

Home | Current Version | Previous Version | Text Only | Print | Product List | Glossary Off
Versions: 1 2 3 4 5 6 7 8 9 10 11 12 13 14 15 16 17 18 19 20 21 22 23 24 25 26 27 28 29 30 31 32 33 34 35 36 37 38 39 40 41 42 43 44 45 46 47 48 49 50

000
ASUS43 KIND 260309
RWRIN

WEATHER ROUNDUP FOR INDIANA
NATIONAL WEATHER SERVICE INDIANAPOLIS IN
1100 PM EDT FRI JUL 25 2014

NOTE: "FAIR" INDICATES FEW OR NO CLOUDS BELOW 12,000 FEET WITH NO
SIGNIFICANT WEATHER AND/OR OBSTRUCTIONS TO VISIBILITY.

* - STATION DOES NOT REPORT WEATHER SUCH AS PRECIPITATION OR FOG.

+ - STATION NOT QUALITY CONTROLLED BY THE NATIONAL WEATHER SERVICE.
    USE DATA WITH CAUTION...ESPECIALLY DEWPOINT AND RELATIVE
    HUMIDITY OBSERVATIONS.

INZ001>003-010>013-019-020-260400-
NORTHWEST INDIANA

CITY           SKY/WX    TMP DP  RH WIND       PRES   REMARKS
GARY /AIRPORT/ MOCLDY    71  60  68 CALM      29.95S
KNOX *+        CLEAR     62  57  85 S5        29.96S
LA PORTE +     CLEAR     64  57  77 S5        29.97S
MICHIGAN CITY+ CLEAR     64  55  72 S3        29.97R
MONTICELLO +   CLOUDY    68  60  75 S5        29.97S
RENSSELAER +   CLOUDY    68  61  77 S6        29.97S
VALPARAISO     CLOUDY    65  59  81 S6        29.97R

$$

LMZ046-743>745-260400-
SOUTHERN LAKE MICHIGAN

STATION/POSITION TIME  TEMP WIND        PRES
                       AIR  DIR/SP/G
                 (UTC) (F)  (DEG/KT/KT) (MB)
MICHIGAN CITY    0300   68  160/  7/ 10   N/A

$$

INZ004-005-014>016-021>024-260400-
NORTH CENTRAL INDIANA

CITY           SKY/WX    TMP DP  RH WIND       PRES   REMARKS
GOSHEN         CLEAR     65  58  78 S5        29.97S
LOGANSPORT +   CLOUDY    64  59  82 S5        29.99R
PERU/GRISSOM   CLOUDY    66  64  93 S5        29.99R
ROCHESTER +    CLEAR     68  59  73 S3        29.99R
SOUTH BEND     CLEAR     66  57  72 S5        29.97R
WARSAW +       PTCLDY    66  57  72 CALM      29.99S

$$

INZ006>009-017-018-025>027-260400-
NORTHEAST INDIANA

CITY           SKY/WX    TMP DP  RH WIND       PRES   REMARKS
ANGOLA *+      CLEAR     63  57  82 CALM      29.99S
AUBURN +       CLOUDY    68  54  60 CALM      30.00S
FORT WAYNE     CLOUDY    68  58  70 S5        30.00R
HUNTINGTON +   PTCLDY    65  58  80 CALM      29.99S

$$

INZ028-029-035-036-043>045-051>053-260400-
WEST CENTRAL INDIANA

CITY           SKY/WX    TMP DP  RH WIND       PRES   REMARKS
GREENCASTLE +  CLOUDY    64  61  88 CALM      30.02R
LAFAYETTE      CLOUDY    69  59  70 S5        29.98S
TERRE HAUTE    PTCLDY    62  58  86 NE5       30.00R

$$

INZ030>032-037>040-046>048-054>057-064-065-260400-
CENTRAL INDIANA

CITY           SKY/WX    TMP DP  RH WIND       PRES   REMARKS
CP ATTERBURY + CLOUDY    66  61  82 CALM      30.02R
GREENWOOD *+   CLOUDY    70  64  83 CALM      30.02
INDIANAPOLIS   CLOUDY    70  59  68 SW6       30.00R
-EAGLE CREEK   CLOUDY    69  59  70 CALM      30.01R
KOKOMO *+      CLOUDY    64  61  88 S6        29.99S
MARION +       MOCLDY    64  59  83 CALM      30.00S
MT COMFORT *+  PTCLDY    66  66 100 CALM      30.02R
SHELBYVILLE    CLOUDY    68  63  84 CALM      30.01R
ZIONSVILLE +   CLOUDY    68  60  75 SW3       30.02R

$$

INZ033-034-041-042-049-050-058-059-260400-
EAST CENTRAL INDIANA

CITY           SKY/WX    TMP DP  RH WIND       PRES   REMARKS
MUNCIE         PTCLDY    69  56  62 S3        30.01R

$$

INZ060-061-067>069-081>083-085>088-260400-
SOUTHWEST INDIANA

CITY           SKY/WX    TMP DP  RH WIND       PRES   REMARKS
EVANSVILLE     CLEAR     69  61  75 CALM      29.99R
HUNTINGBURG *+ PTCLDY    68  61  77 CALM      30.00S
WASHINGTON +   CLEAR     63  62  97 CALM      29.99S

$$

INZ062-063-066-070>080-084-089>092-260400-
SOUTH CENTRAL AND SOUTHEAST INDIANA

CITY           SKY/WX    TMP DP  RH WIND       PRES   REMARKS
BEDFORD +      CLOUDY    68  61  77 CALM      30.01
BLOOMINGTON    CLOUDY    66  64  93 CALM      30.01R
NORTH VERNON + MOCLDY    66  66 100 CALM      30.01R

$$



USA.gov is the U.S. government's official web portal to all federal, state and local government web resources and services.